Cincinnati, OH

11:51 AM EST on December 06, 2019 (GMT -0500)
Cincinnati Municipal-Lunken

Weather History for KLUK - October, 2019

Change the Weather History Date:

Thursday, October 24, 2019

  Actual Average Record
Temperature  
Mean Temperature 54 °F -  
Max Temperature 71 °F 64 °F 83 °F (1963)
Min Temperature 37 °F 44 °F 23 °F (1981)
Degree Days  
Heating Degree Days 11    
Growing Degree Days 4 (Base 50)    
Moisture  
Dew Point 41 °F    
Average Humidity 68    
Maximum Humidity 97    
Minimum Humidity 34    
Precipitation  
Precipitation 0.00 in - - ()
Sea Level Pressure  
Sea Level Pressure 30.23 in    
Wind  
Wind Speed 2 mph ()    
Max Wind Speed 8 mph    
Max Gust Speed -    
Visibility 10.0 miles    
Events      
Averages and records for this station are not official NWS values.
T = Trace of Precipitation, MM = Missing Value Source: Averaged Metar Reports

Daily Weather History Graph

Daily Weather History Graph

Search for Another Location

Airport or City:

Astronomy

Oct. 24, 2019 Rise Set
Actual Time 7:56 AM EDT 6:46 PM EDT
Civil Twilight 7:29 AM EDT 7:14 PM EDT
Nautical Twilight 6:57 AM EDT 7:45 PM EDT
Astronomical Twilight 6:26 AM EDT 8:16 PM EDT
Moon 3:28 AM EDT (10/24) 5:11 PM EDT (10/24)
Length of Visible Light 11h 45m
Length of Day
10h 50m
Waning Crescent, 17% of the Moon is Illuminated
Oct 24
Waning Crescent
Oct 27
New
Nov 4
First Quarter
Nov 12
Full
Nov 19
Last Quarter

Hourly Weather History & Observations

Time (EDT) Temp. Dew Point Humidity Pressure Visibility Wind Dir Wind Speed Gust Speed Precip Events Conditions
12:53 AM 50.0 °F 36.0 °F 59% 30.16 in 10.0 mi SW 3.5 mph - N/A   Clear
1:53 AM 44.1 °F 37.9 °F 79% 30.19 in 10.0 mi Calm Calm - N/A   Clear
2:53 AM 39.0 °F 36.0 °F 89% 30.20 in 10.0 mi Calm Calm - N/A   Clear
3:53 AM 41.0 °F 37.9 °F 89% 30.20 in 10.0 mi Calm Calm - N/A   Clear
4:53 AM 39.9 °F 37.9 °F 93% 30.20 in 10.0 mi Calm Calm - N/A   Clear
5:53 AM 39.0 °F 37.0 °F 93% 30.22 in 10.0 mi Calm Calm - N/A   Clear
6:53 AM 37.9 °F 37.0 °F 97% 30.23 in 10.0 mi Calm Calm - N/A   Clear
7:53 AM 37.9 °F 37.0 °F 97% 30.24 in 10.0 mi Calm Calm - N/A   Clear
8:53 AM 43.0 °F 39.9 °F 89% 30.26 in 10.0 mi Calm Calm - N/A   Clear
9:53 AM 52.0 °F 39.9 °F 63% 30.27 in 10.0 mi SSW 4.6 mph - N/A   Clear
10:53 AM 57.9 °F 39.0 °F 49% 30.27 in 10.0 mi South 4.6 mph - N/A   Clear
12:53 PM 66.9 °F 39.9 °F 37% 30.26 in 10.0 mi SSW 8.1 mph - N/A   Clear
1:53 PM 69.1 °F 41.0 °F 36% 30.23 in 10.0 mi Variable 5.8 mph - N/A   Clear
2:53 PM 70.0 °F 41.0 °F 35% 30.21 in 10.0 mi Variable 5.8 mph - N/A   Clear
3:53 PM 71.1 °F 41.0 °F 34% 30.21 in 10.0 mi Variable 3.5 mph - N/A   Partly Cloudy
4:53 PM 69.1 °F 42.1 °F 38% 30.21 in 10.0 mi Variable 4.6 mph - N/A   Scattered Clouds
5:53 PM 66.0 °F 46.9 °F 50% 30.21 in 10.0 mi Calm Calm - N/A   Partly Cloudy
6:53 PM 64.0 °F 43.0 °F 46% 30.22 in 10.0 mi NNW 8.1 mph - N/A   Mostly Cloudy
7:53 PM 59.0 °F 44.1 °F 58% 30.25 in 10.0 mi NNE 6.9 mph - N/A   Clear
8:53 PM 54.0 °F 46.0 °F 75% 30.28 in 10.0 mi Calm Calm - N/A   Clear
9:53 PM 51.1 °F 46.0 °F 83% 30.28 in 10.0 mi Calm Calm - N/A   Clear
10:53 PM 48.9 °F 45.0 °F 86% 30.29 in 10.0 mi Calm Calm - N/A   Clear
11:53 PM 51.1 °F 46.9 °F 86% 30.30 in 10.0 mi Calm Calm - N/A   Clear